Regional Weather Roundup
Issued by NWS

Home | Current Version | Previous Version | Graphics & Text | Print | Product List | Glossary On
Versions: 1 2 3 4 5 6 7 8 9 10 11 12 13 14 15 16 17 18 19 20 21 22 23 24 25 26 27 28 29 30 31 32 33 34 35 36 37 38 39 40 41 42 43 44 45 46 47 48 49 50
000
ASUS43 KLMK 271810
RWRKY
KENTUCKY REGIONAL WEATHER ROUNDUP
NATIONAL WEATHER SERVICE LOUISVILLE KY
200 PM EDT SAT AUG 27 2016

NOTE "FAIR" INDICATES FEW OR NO CLOUDS BELOW 12,000 FEET
WITH NO SIGNIFICANT WEATHER AND/OR OBSTRUCTIONS TO VISIBILITY.

KYZ001>023-026-027-061>063-070>075-271900-
WESTERN AND SOUTH CENTRAL KENTUCKY

CITY           SKY/WX    TMP DP  RH WIND       PRES   REMARKS
PADUCAH        SUNNY     87  74  64 CALM      30.08F HX  95
HENDERSON      PTSUNNY   84  70  61 CALM      30.07F
OWENSBORO      MOSUNNY   88  74  63 NW7       30.09F HX  96
HOPKINSVILLE   SUNNY     88  75  63 W5        30.08F HX  98
BOWLING GREEN  PTSUNNY   91  75  59 VRB5      30.09F HX 101
GLASGOW        SUNNY     91  72  54 W7        30.10F HX  98
$$

KYZ024-025-028>034-038-045-046-053-271900-
NORTH CENTRAL KENTUCKY

CITY           SKY/WX    TMP DP  RH WIND       PRES   REMARKS
LOUISVILLE/SDF CLOUDY    86  72  62 NW13      30.10S HX  92
LOUISVILLE/LOU MOSUNNY   85  71  63 N10       30.11S HX  90
FORT KNOX      MOSUNNY   87  75  67 N6        30.09F HX  97
$$

KYZ035>037-039>044-047>052-055>060-089>105-271900-
NORTHEAST KENTUCKY

CITY           SKY/WX    TMP DP  RH WIND       PRES   REMARKS
LEXINGTON      MOSUNNY   92  70  48 VRB5      30.11F HX  97
COVINGTON      CLOUDY    89  73  59 S7        30.11S HX  97
FRANKFORT      MOSUNNY   92  71  50 SW9       30.09F HX  98
$$

KYZ054-064>069-076>088-106>120-271900-
SOUTHEAST KENTUCKY

CITY           SKY/WX    TMP DP  RH WIND       PRES   REMARKS
JACKSON        SUNNY     89  72  56 SE3       30.15F HX  96
LONDON         SUNNY     90  68  48 S8        30.14F HX  94
SOMERSET       MOSUNNY   88  70  55 CALM      30.13F HX  92
MIDDLESBORO    SUNNY     91  71  50 SE6       30.14F HX  97
MONTICELLO     CLEAR    N/A N/A N/A W10G17    30.13F
$$




USA.gov is the U.S. government's official web portal to all federal, state and local government web resources and services.